| time (UTC) | temp F | wind direction | speed MPH | gust MPH | rain 1hr in | rain 24hr in | rain mn in | humidity % | barometer mb |
| 20260502210516 | 88 | 62 | 2.0 | 72.0 | 0.00 | 0.00 | 0.00 | 12 | 1014.0 |
| 20260502210031 | 88 | 276 | 2.0 | 9.0 | 0.00 | 0.00 | 0.00 | 11 | 1014.0 |
| 20260502205527 | 90 | 244 | 2.0 | 9.0 | 0.00 | 0.00 | 0.00 | 11 | 1014.1 |
| 20260502205023 | 90 | 275 | 3.0 | 8.0 | 0.00 | 0.00 | 0.00 | 11 | 1014.2 |
| 20260502204518 | 91 | 288 | 5.0 | 8.0 | 0.00 | 0.00 | 0.00 | 12 | 1014.5 |
| 20260502204018 | 87 | 113 | 4.0 | 8.0 | 0.00 | 0.00 | 0.00 | 12 | 1014.5 |
| 20260502203514 | 87 | 118 | 3.0 | 9.0 | 0.00 | 0.00 | 0.00 | 12 | 1014.6 |
| 20260502203030 | 87 | 90 | 2.0 | 11.0 | 0.00 | 0.00 | 0.00 | 11 | 1014.8 |
| 20260502202525 | 88 | 63 | 2.0 | 11.0 | 0.00 | 0.00 | 0.00 | 11 | 1014.8 |
| 20260502202021 | 86 | 65 | 3.0 | 9.0 | 0.00 | 0.00 | 0.00 | 12 | 1014.7 |
| 20260502201517 | 88 | 108 | 4.0 | 9.0 | 0.00 | 0.00 | 0.00 | 14 | 1014.9 |
| 20260502201013 | 87 | 92 | 4.0 | 11.0 | 0.00 | 0.00 | 0.00 | 12 | 1015.0 |
| 20260502200533 | 88 | 114 | 5.0 | 11.0 | 0.00 | 0.00 | 0.00 | 12 | 1015.0 |
| 20260502200028 | 86 | 247 | 6.0 | 11.0 | 0.00 | 0.00 | 0.00 | 14 | 1015.0 |
| 20260502195524 | 86 | 127 | 1.0 | 13.0 | 0.00 | 0.00 | 0.00 | 15 | 1015.2 |
| 20260502195019 | 86 | 141 | 8.0 | 15.0 | 0.00 | 0.00 | 0.00 | 15 | 1015.2 |
| 20260502194515 | 86 | 117 | 6.0 | 15.0 | 0.00 | 0.00 | 0.00 | 16 | 1015.2 |
| 20260502194032 | 85 | 212 | 4.0 | 13.0 | 0.00 | 0.00 | 0.00 | 16 | 1015.3 |
| 20260502193528 | 84 | 107 | 7.0 | 13.0 | 0.00 | 0.00 | 0.00 | 17 | 1015.5 |
| 20260502193027 | 86 | 206 | 2.0 | 12.0 | 0.00 | 0.00 | 0.00 | 16 | 1015.4 |
| 20260502192524 | 85 | 140 | 4.0 | 12.0 | 0.00 | 0.00 | 0.00 | 18 | 1015.3 |
| 20260502192021 | 85 | 191 | 4.0 | 14.0 | 0.00 | 0.00 | 0.00 | 18 | 1015.5 |
| 20260502191517 | 84 | 174 | 5.0 | 15.0 | 0.00 | 0.00 | 0.00 | 19 | 1015.5 |
| 20260502191013 | 84 | 135 | 4.0 | 15.0 | 0.00 | 0.00 | 0.00 | 20 | 1015.5 |
| 20260502190529 | 84 | 94 | 6.0 | 13.0 | 0.00 | 0.00 | 0.00 | 21 | 1015.6 |
| 20260502190025 | 84 | 97 | 5.0 | 13.0 | 0.00 | 0.00 | 0.00 | 21 | 1015.7 |
| 20260502185525 | 84 | 155 | 4.0 | 13.0 | 0.00 | 0.00 | 0.00 | 22 | 1015.9 |
| 20260502185020 | 83 | 123 | 6.0 | 13.0 | 0.00 | 0.00 | 0.00 | 22 | 1015.9 |
| 20260502184517 | 84 | 125 | 2.0 | 16.0 | 0.00 | 0.00 | 0.00 | 20 | 1015.9 |
| 20260502184014 | 82 | 147 | 9.0 | 14.0 | 0.00 | 0.00 | 0.00 | 21 | 1016.0 |
| 20260502183531 | 83 | 106 | 7.0 | 13.0 | 0.00 | 0.00 | 0.00 | 23 | 1016.1 |
| 20260502183027 | 83 | 131 | 7.0 | 16.0 | 0.00 | 0.00 | 0.00 | 23 | 1016.2 |
| 20260502182522 | 83 | 135 | 8.0 | 16.0 | 0.00 | 0.00 | 0.00 | 24 | 1016.4 |
| 20260502182023 | 84 | 102 | 5.0 | 15.0 | 0.00 | 0.00 | 0.00 | 24 | 1016.4 |
| 20260502181519 | 82 | 87 | 5.0 | 15.0 | 0.00 | 0.00 | 0.00 | 26 | 1016.4 |
| 20260502181015 | 82 | 131 | 9.0 | 15.0 | 0.00 | 0.00 | 0.00 | 26 | 1016.4 |
| 20260502180532 | 81 | 103 | 8.0 | 18.0 | 0.00 | 0.00 | 0.00 | 26 | 1016.6 |
| 20260502164027 | 79 | 81 | 7.0 | 13.0 | 0.00 | 0.00 | 0.00 | 30 | 1016.8 |
| 20260502163522 | 79 | 83 | 7.0 | 13.0 | 0.00 | 0.00 | 0.00 | 30 | 1016.9 |
| 20260502163018 | 78 | 123 | 9.0 | 17.0 | 0.00 | 0.00 | 0.00 | 31 | 1016.9 |
| 20260502162518 | 78 | 98 | 7.0 | 17.0 | 0.00 | 0.00 | 0.00 | 31 | 1016.9 |
| 20260502162014 | 78 | 111 | 9.0 | 18.0 | 0.00 | 0.00 | 0.00 | 32 | 1016.9 |
| 20260502161529 | 77 | 59 | 8.0 | 18.0 | 0.00 | 0.00 | 0.00 | 33 | 1016.9 |
| 20260502161025 | 77 | 88 | 8.0 | 15.0 | 0.00 | 0.00 | 0.00 | 33 | 1016.8 |
| 20260502160521 | 76 | 101 | 10.0 | 16.0 | 0.00 | 0.00 | 0.00 | 33 | 1016.8 |
| 20260502151526 | 74 | 131 | 12.0 | 19.0 | 0.00 | 0.00 | 0.00 | 36 | 1016.7 |
| 20260502151021 | 74 | 71 | 9.0 | 19.0 | 0.00 | 0.00 | 0.00 | 36 | 1016.7 |
| 20260502150517 | 73 | 110 | 11.0 | 19.0 | 0.00 | 0.00 | 0.00 | 36 | 1016.7 |
| 20260502130526 | 65 | 203 | 4.0 | 10.0 | 0.00 | 0.00 | 0.00 | 43 | 1015.1 |
| 20260502123523 | 63 | 217 | 4.0 | 7.0 | 0.00 | 0.00 | 0.00 | 40 | 1014.6 |
| 20260502123019 | 62 | 214 | 4.0 | 6.0 | 0.00 | 0.00 | 0.00 | 39 | 1014.7 |
| 20260502122515 | 62 | 209 | 2.0 | 5.0 | 0.00 | 0.00 | 0.00 | 38 | 1014.7 |
| 20260502122030 | 62 | 209 | 3.0 | 5.0 | 0.00 | 0.00 | 0.00 | 37 | 1014.7 |
| 20260502121530 | 62 | 209 | 2.0 | 5.0 | 0.00 | 0.00 | 0.00 | 37 | 1014.7 |
| 20260502121026 | 63 | 209 | 2.0 | 5.0 | 0.00 | 0.00 | 0.00 | 36 | 1014.7 |
| 20260502120522 | 63 | 249 | 2.0 | 7.0 | 0.00 | 0.00 | 0.00 | 36 | 1014.7 |
| 20260502115532 | 63 | 254 | 2.0 | 4.0 | 0.00 | 0.00 | 0.00 | 36 | 1014.5 |
| 20260502115025 | 63 | 254 | 1.0 | 4.0 | 0.00 | 0.00 | 0.00 | 35 | 1014.5 |
| 20260502114521 | 62 | 256 | 2.0 | 4.0 | 0.00 | 0.00 | 0.00 | 36 | 1014.5 |
| 20260502114020 | 61 | 256 | 1.0 | 3.0 | 0.00 | 0.00 | 0.00 | 37 | 1014.5 |
| 20260502113516 | 61 | 256 | 2.0 | 4.0 | 0.00 | 0.00 | 0.00 | 37 | 1014.3 |
| 20260502113013 | 61 | 256 | 2.0 | 6.0 | 0.00 | 0.00 | 0.00 | 37 | 1014.3 |
| 20260502112529 | 62 | 256 | 3.0 | 7.0 | 0.00 | 0.00 | 0.00 | 36 | 1014.3 |
| 20260502112024 | 61 | 257 | 4.0 | 7.0 | 0.00 | 0.00 | 0.00 | 35 | 1014.4 |
| 20260502111520 | 61 | 305 | 2.0 | 5.0 | 0.00 | 0.00 | 0.00 | 35 | 1014.4 |
| 20260502111016 | 61 | 308 | 1.0 | 4.0 | 0.00 | 0.00 | 0.00 | 35 | 1014.4 |
| 20260502110516 | 61 | 308 | 1.0 | 2.0 | 0.00 | 0.00 | 0.00 | 35 | 1014.5 |
| 20260502110030 | 61 | 308 | 1.0 | 2.0 | 0.00 | 0.00 | 0.00 | 34 | 1014.5 |
| 20260502105526 | 61 | 308 | 1.0 | 2.0 | 0.00 | 0.00 | 0.00 | 34 | 1014.7 |
| 20260502105022 | 61 | 308 | 1.0 | 3.0 | 0.00 | 0.00 | 0.00 | 35 | 1014.5 |
| 20260502104517 | 60 | 308 | 1.0 | 3.0 | 0.00 | 0.00 | 0.00 | 35 | 1014.7 |
| 20260502104013 | 60 | 308 | 2.0 | 4.0 | 0.00 | 0.00 | 0.00 | 35 | 1014.7 |
| 20260502103529 | 60 | 308 | 2.0 | 4.0 | 0.00 | 0.00 | 0.00 | 36 | 1014.6 |
| 20260502103025 | 60 | 308 | 2.0 | 4.0 | 0.00 | 0.00 | 0.00 | 36 | 1014.6 |
| 20260502102525 | 60 | 308 | 2.0 | 4.0 | 0.00 | 0.00 | 0.00 | 36 | 1014.6 |
| 20260502102020 | 61 | 308 | 2.0 | 4.0 | 0.00 | 0.00 | 0.00 | 35 | 1014.5 |
| 20260502101517 | 61 | 309 | 0.0 | 5.0 | 0.00 | 0.00 | 0.00 | 35 | 1014.5 |
| 20260502101013 | 62 | 309 | 2.0 | 5.0 | 0.00 | 0.00 | 0.00 | 35 | 1014.3 |
| 20260502100528 | 62 | 267 | 1.0 | 4.0 | 0.00 | 0.00 | 0.00 | 35 | 1014.3 |
| 20260502091515 | 63 | 281 | 0.0 | 2.0 | 0.00 | 0.00 | 0.00 | 33 | 1014.0 |
| 20260502091030 | 63 | 281 | 1.0 | 2.0 | 0.00 | 0.00 | 0.00 | 32 | 1014.0 |
| 20260502090526 | 63 | 281 | 0.0 | 3.0 | 0.00 | 0.00 | 0.00 | 32 | 1014.0 |
| 20260502071523 | 69 | 281 | 2.0 | 3.0 | 0.00 | 0.00 | 0.00 | 26 | 1014.1 |
| 20260502071019 | 69 | 281 | 2.0 | 3.0 | 0.00 | 0.00 | 0.00 | 26 | 1014.1 |
| 20260502070514 | 69 | 281 | 2.0 | 4.0 | 0.00 | 0.00 | 0.00 | 26 | 1014.1 |
| 20260502070029 | 68 | 281 | 3.0 | 4.0 | 0.00 | 0.00 | 0.00 | 27 | 1014.2 |
| 20260502065525 | 68 | 281 | 3.0 | 4.0 | 0.00 | 0.00 | 0.00 | 27 | 1014.3 |
| 20260502065025 | 69 | 281 | 3.0 | 4.0 | 0.00 | 0.00 | 0.00 | 27 | 1014.3 |
| 20260502064521 | 68 | 282 | 2.0 | 3.0 | 0.00 | 0.00 | 0.00 | 28 | 1014.2 |
| 20260502064017 | 68 | 282 | 2.0 | 3.0 | 0.00 | 0.00 | 0.00 | 27 | 1014.3 |
| 20260502063513 | 69 | 282 | 2.0 | 3.0 | 0.00 | 0.00 | 0.00 | 27 | 1014.2 |
| 20260502063029 | 69 | 282 | 2.0 | 3.0 | 0.00 | 0.00 | 0.00 | 26 | 1014.1 |
| 20260502062525 | 69 | 282 | 2.0 | 3.0 | 0.00 | 0.00 | 0.00 | 26 | 1014.1 |
| 20260502062020 | 70 | 282 | 2.0 | 4.0 | 0.00 | 0.00 | 0.00 | 26 | 1014.0 |
| 20260502061016 | 70 | 282 | 2.0 | 6.0 | 0.00 | 0.00 | 0.00 | 25 | 1013.9 |
| 20260502060532 | 70 | 283 | 3.0 | 6.0 | 0.00 | 0.00 | 0.00 | 25 | 1014.0 |
| 20260502060027 | 70 | 283 | 3.0 | 4.0 | 0.00 | 0.00 | 0.00 | 26 | 1013.9 |
| 20260502055523 | 70 | 284 | 2.0 | 3.0 | 0.00 | 0.00 | 0.00 | 26 | 1013.9 |
| 20260502055019 | 70 | 284 | 2.0 | 3.0 | 0.00 | 0.00 | 0.00 | 26 | 1013.8 |
| 20260502054514 | 71 | 284 | 2.0 | 3.0 | 0.00 | 0.00 | 0.00 | 26 | 1013.8 |
| 20260502054014 | 71 | 284 | 2.0 | 3.0 | 0.00 | 0.00 | 0.00 | 26 | 1013.8 |
| 20260502053530 | 71 | 284 | 2.0 | 3.0 | 0.00 | 0.00 | 0.00 | 26 | 1013.8 |
| 20260502053026 | 71 | 284 | 2.0 | 3.0 | 0.00 | 0.00 | 0.00 | 26 | 1013.9 |
| 20260502052521 | 71 | 284 | 2.0 | 3.0 | 0.00 | 0.00 | 0.00 | 25 | 1013.8 |
| 20260502052017 | 72 | 284 | 2.0 | 3.0 | 0.00 | 0.00 | 0.00 | 25 | 1013.8 |
| 20260502051513 | 72 | 284 | 2.0 | 3.0 | 0.00 | 0.00 | 0.00 | 25 | 1013.8 |
| 20260502051029 | 73 | 284 | 2.0 | 3.0 | 0.00 | 0.00 | 0.00 | 24 | 1013.7 |
| 20260502050528 | 73 | 284 | 0.0 | 2.0 | 0.00 | 0.00 | 0.00 | 25 | 1013.7 |
| 20260502050023 | 73 | 284 | 1.0 | 3.0 | 0.00 | 0.00 | 0.00 | 24 | 1013.7 |
| 20260502045519 | 73 | 284 | 1.0 | 3.0 | 0.00 | 0.00 | 0.00 | 24 | 1013.8 |
| 20260502045014 | 73 | 284 | 1.0 | 3.0 | 0.00 | 0.00 | 0.00 | 24 | 1013.7 |
| 20260502044530 | 73 | 284 | 2.0 | 3.0 | 0.00 | 0.00 | 0.00 | 24 | 1013.5 |
| 20260502044025 | 73 | 284 | 2.0 | 4.0 | 0.00 | 0.00 | 0.00 | 24 | 1013.5 |
| 20260502043520 | 74 | 284 | 3.0 | 6.0 | 0.00 | 0.00 | 0.00 | 23 | 1013.5 |
| 20260502043019 | 74 | 284 | 2.0 | 6.0 | 0.00 | 0.00 | 0.00 | 23 | 1013.4 |
| 20260502042515 | 75 | 285 | 3.0 | 6.0 | 0.00 | 0.00 | 0.00 | 23 | 1013.4 |
| 20260502042031 | 75 | 285 | 3.0 | 6.0 | 0.00 | 0.00 | 0.00 | 23 | 1013.4 |
| 20260502041526 | 75 | 285 | 3.0 | 7.0 | 0.00 | 0.00 | 0.00 | 23 | 1013.3 |
| 20260502041022 | 75 | 283 | 3.0 | 7.0 | 0.00 | 0.00 | 0.00 | 23 | 1013.3 |
| 20260502040518 | 76 | 287 | 3.0 | 6.0 | 0.00 | 0.00 | 0.00 | 23 | 1013.1 |
| 20260502040012 | 76 | 287 | 3.0 | 4.0 | 0.00 | 0.00 | 0.00 | 23 | 1013.0 |
| 20260502035512 | 76 | 287 | 2.0 | 4.0 | 0.00 | 0.00 | 0.00 | 23 | 1013.0 |
| 20260502035028 | 76 | 287 | 3.0 | 6.0 | 0.00 | 0.00 | 0.00 | 23 | 1012.9 |
| 20260502034523 | 76 | 283 | 3.0 | 4.0 | 0.00 | 0.00 | 0.00 | 23 | 1012.9 |
| 20260502034019 | 76 | 283 | 2.0 | 6.0 | 0.00 | 0.00 | 0.00 | 22 | 1012.8 |
| 20260502033516 | 76 | 324 | 3.0 | 5.0 | 0.00 | 0.00 | 0.00 | 23 | 1012.8 |
| 20260502033031 | 75 | 327 | 3.0 | 5.0 | 0.00 | 0.00 | 0.00 | 23 | 1012.7 |
| 20260502032525 | 75 | 327 | 2.0 | 5.0 | 0.00 | 0.00 | 0.00 | 23 | 1012.5 |
| 20260502032020 | 76 | 327 | 2.0 | 4.0 | 0.00 | 0.00 | 0.00 | 23 | 1012.5 |
| 20260502031520 | 76 | 327 | 2.0 | 5.0 | 0.00 | 0.00 | 0.00 | 22 | 1012.5 |
| 20260502031015 | 77 | 327 | 3.0 | 5.0 | 0.00 | 0.00 | 0.00 | 22 | 1012.3 |
| 20260502030531 | 77 | 329 | 2.0 | 4.0 | 0.00 | 0.00 | 0.00 | 22 | 1012.2 |
| 20260502030026 | 77 | 329 | 2.0 | 4.0 | 0.00 | 0.00 | 0.00 | 22 | 1012.1 |
| 20260502025522 | 78 | 329 | 2.0 | 3.0 | 0.00 | 0.00 | 0.00 | 21 | 1012.0 |
| 20260502025017 | 78 | 329 | 1.0 | 5.0 | 0.00 | 0.00 | 0.00 | 21 | 1012.0 |
| 20260502024513 | 78 | 329 | 1.0 | 5.0 | 0.00 | 0.00 | 0.00 | 21 | 1012.0 |
| 20260502024013 | 78 | 329 | 1.0 | 3.0 | 0.00 | 0.00 | 0.00 | 21 | 1011.8 |
| 20260502023529 | 78 | 329 | 0.0 | 2.0 | 0.00 | 0.00 | 0.00 | 21 | 1011.8 |
| 20260502023024 | 79 | 329 | 1.0 | 2.0 | 0.00 | 0.00 | 0.00 | 21 | 1011.8 |
| 20260502022520 | 79 | 329 | 0.0 | 1.0 | 0.00 | 0.00 | 0.00 | 21 | 1011.7 |
| 20260502022016 | 79 | 329 | 0.0 | 5.0 | 0.00 | 0.00 | 0.00 | 21 | 1011.6 |
| 20260502021512 | 80 | 329 | 1.0 | 5.0 | 0.00 | 0.00 | 0.00 | 20 | 1011.6 |
| 20260502021028 | 80 | 329 | 0.0 | 3.0 | 0.00 | 0.00 | 0.00 | 20 | 1011.6 |
| 20260502020528 | 80 | 329 | 1.0 | 9.0 | 0.00 | 0.00 | 0.00 | 19 | 1011.5 |
| 20260502020023 | 81 | 330 | 2.0 | 9.0 | 0.00 | 0.00 | 0.00 | 18 | 1011.5 |
| 20260502015519 | 81 | 287 | 3.0 | 8.0 | 0.00 | 0.00 | 0.00 | 18 | 1011.3 |
| 20260502015014 | 81 | 294 | 2.0 | 7.0 | 0.00 | 0.00 | 0.00 | 17 | 1011.3 |
| 20260502014530 | 82 | 293 | 1.0 | 4.0 | 0.00 | 0.00 | 0.00 | 17 | 1011.3 |
| 20260502014026 | 82 | 293 | 0.0 | 7.0 | 0.00 | 0.00 | 0.00 | 17 | 1011.2 |
| 20260502013522 | 82 | 292 | 2.0 | 8.0 | 0.00 | 0.00 | 0.00 | 17 | 1011.2 |
| 20260502013021 | 82 | 291 | 2.0 | 8.0 | 0.00 | 0.00 | 0.00 | 16 | 1011.1 |
| 20260502012517 | 83 | 267 | 5.0 | 8.0 | 0.00 | 0.00 | 0.00 | 16 | 1011.2 |
| 20260502012013 | 83 | 277 | 4.0 | 11.0 | 0.00 | 0.00 | 0.00 | 16 | 1011.1 |
| 20260502011528 | 83 | 262 | 3.0 | 11.0 | 0.00 | 0.00 | 0.00 | 16 | 1011.1 |
| 20260502011024 | 83 | 262 | 6.0 | 9.0 | 0.00 | 0.00 | 0.00 | 16 | 1011.1 |
| 20260502010520 | 84 | 310 | 3.0 | 8.0 | 0.00 | 0.00 | 0.00 | 16 | 1011.0 |
| 20260502010016 | 84 | 308 | 3.0 | 8.0 | 0.00 | 0.00 | 0.00 | 16 | 1011.0 |
| 20260502005515 | 84 | 297 | 2.0 | 10.0 | 0.00 | 0.00 | 0.00 | 16 | 1011.0 |
| 20260502005031 | 85 | 277 | 4.0 | 13.0 | 0.00 | 0.00 | 0.00 | 16 | 1010.9 |
| 20260502004527 | 85 | 281 | 4.0 | 13.0 | 0.00 | 0.00 | 0.00 | 16 | 1010.9 |
| 20260502004023 | 85 | 283 | 4.0 | 11.0 | 0.00 | 0.00 | 0.00 | 16 | 1010.9 |
| 20260502003518 | 85 | 314 | 2.0 | 10.0 | 0.00 | 0.00 | 0.00 | 16 | 1010.9 |
| 20260502003014 | 85 | 291 | 2.0 | 12.0 | 0.00 | 0.00 | 0.00 | 16 | 1010.8 |
| 20260502002530 | 85 | 276 | 6.0 | 12.0 | 0.00 | 0.00 | 0.00 | 16 | 1010.9 |
| 20260502002025 | 85 | 298 | 3.0 | 9.0 | 0.00 | 0.00 | 0.00 | 16 | 1011.0 |
| 20260502001525 | 85 | 307 | 5.0 | 9.0 | 0.00 | 0.00 | 0.00 | 16 | 1010.9 |
| 20260502001021 | 85 | 292 | 2.0 | 12.0 | 0.00 | 0.00 | 0.00 | 16 | 1011.0 |
| 20260502000517 | 86 | 285 | 4.0 | 10.0 | 0.00 | 0.00 | 0.00 | 15 | 1011.0 |
| 20260502000012 | 84 | 339 | 1.0 | 8.0 | 0.00 | 0.00 | 0.00 | 16 | 1011.0 |
| 20260501235528 | 85 | 298 | 2.0 | 8.0 | 0.00 | 0.00 | 0.00 | 16 | 1011.0 |
| 20260501235024 | 85 | 335 | 3.0 | 9.0 | 0.00 | 0.00 | 0.00 | 15 | 1011.0 |
| 20260501234519 | 87 | 286 | 4.0 | 10.0 | 0.00 | 0.00 | 0.00 | 16 | 1011.0 |
| 20260501234019 | 86 | 292 | 5.0 | 10.0 | 0.00 | 0.00 | 0.00 | 16 | 1010.9 |
| 20260501233515 | 85 | 295 | 3.0 | 9.0 | 0.00 | 0.00 | 0.00 | 16 | 1011.0 |
| 20260501233012 | 87 | 325 | 4.0 | 9.0 | 0.00 | 0.00 | 0.00 | 16 | 1011.0 |
| 20260501232528 | 86 | 322 | 3.0 | 8.0 | 0.00 | 0.00 | 0.00 | 16 | 1010.9 |
| 20260501231517 | 87 | 335 | 2.0 | 9.0 | 0.01 | 0.01 | 0.01 | 17 | 1011.0 |
| 20260501231033 | 85 | 1 | 3.0 | 6.0 | 0.00 | 0.00 | 0.00 | 17 | 1011.0 |
| 20260501230532 | 86 | 352 | 2.0 | 9.0 | 0.00 | 0.00 | 0.00 | 17 | 1011.0 |
| 20260501230027 | 87 | 278 | 4.0 | 9.0 | 0.00 | 0.00 | 0.00 | 17 | 1011.0 |
| 20260501225523 | 87 | 293 | 4.0 | 8.0 | 0.00 | 0.00 | 0.00 | 16 | 1011.1 |
| 20260501225019 | 87 | 354 | 2.0 | 8.0 | 0.00 | 0.00 | 0.00 | 16 | 1011.1 |
| 20260501224515 | 86 | 273 | 2.0 | 8.0 | 0.00 | 0.00 | 0.00 | 16 | 1011.2 |